User: anonymous   Login
Location: Unspecified
(0.0000°N, 0.0000°E)
Time: 00:15:15
(UTC+00:00)
Language:

Orbcomm F1 (FM01) - Orbit

View from above orbital plane
View from above orbital plane
View from above satellite
View from above satellite

Ground track
Ground track

The orbit data is extracted from the following two-line orbital elements,

1 23545U 95017A   17326.43303951 +.00000535 +00000-0 +99127-4 0  9993
2 23545 069.9695 317.5481 0002053 093.3290 266.8089 14.70910704205122
Epoch (UTC): 22 November 2017 10:23:34
Eccentricity: 0.0002053
inclination: 69.9695°
perigee height: 657 km
apogee height: 659 km
right ascension of ascending node: 317.5481°
argument of perigee: 93.3290°
revolutions per day: 14.70910704
mean anomaly at epoch: 266.8089°
orbit number at epoch: 20512

The dashed part of the orbit path shows where the satellite is in the earth's shadow,  

DLR